Mayport NS, FL

5:14 PM EDT on May 25, 2018 (GMT -0400)
Mayport Naval Station / Adm. David L. McDonald Field

Weather History for KNRB - July, 2013

Change the Weather History Date:

Sunday, July 14, 2013

  Actual Average Record
Temperature  
Mean Temperature 78 °F -  
Max Temperature 82 °F 87 °F 98 °F (2004)
Min Temperature 73 °F 73 °F 71 °F (1997)
Cooling Degree Days 12    
Growing Degree Days 28 (Base 50)    
Moisture  
Dew Point 73 °F    
Average Humidity 87    
Maximum Humidity 100    
Minimum Humidity 72    
Precipitation  
Precipitation 0.00 in - - ()
Sea Level Pressure  
Sea Level Pressure 30.08 in    
Wind  
Wind Speed 6 mph (SE)    
Max Wind Speed 13 mph    
Max Gust Speed 21 mph    
Visibility 10 miles    
Events      
Averages and records for this station are not official NWS values.
T = Trace of Precipitation, MM = Missing Value Source: NWS Daily Summary

Daily Weather History Graph

Daily Weather History Graph

Search for Another Location

Airport or City:

Astronomy

Jul. 14, 2013 Rise Set
Actual Time 6:33 AM EDT 8:29 PM EDT
Civil Twilight 6:06 AM EDT 8:56 PM EDT
Nautical Twilight 5:33 AM EDT 9:29 PM EDT
Astronomical Twilight 4:58 AM EDT 10:03 PM EDT
Moon 12:19 PM EDT (7/14) No Moon Set
Length of Visible Light 14h 49m
Length of Day
13h 55m
Waxing Crescent, 35% of the Moon is Illuminated
Jul 14
Waxing Crescent
Jul 15
First Quarter
Jul 22
Full
Jul 29
Last Quarter
Aug 6
New

Hourly Weather History & Observations

Time (EDT) Temp. Heat Index Dew Point Humidity Pressure Visibility Wind Dir Wind Speed Gust Speed Precip Events Conditions
12:52 AM 75.0 °F - 73.0 °F 94% 30.03 in 10.0 mi SE 4.6 mph - N/A   Clear
1:52 AM 73.0 °F - 73.0 °F 100% 30.01 in 10.0 mi Calm Calm - N/A   Clear
2:52 AM 73.9 °F - 73.0 °F 97% 30.01 in 10.0 mi Calm Calm - N/A   Clear
3:52 AM 75.0 °F - 73.9 °F 96% 30.01 in 10.0 mi East 4.6 mph - N/A   Clear
4:52 AM 75.0 °F - 73.9 °F 96% 30.00 in 10.0 mi SE 6.9 mph - N/A   Clear
5:52 AM 73.9 °F - 73.0 °F 97% 30.01 in 10.0 mi SSE 5.8 mph - N/A   Clear
6:52 AM 73.0 °F - 73.0 °F 100% 30.04 in 10.0 mi South 3.5 mph - N/A   Clear
7:52 AM 73.0 °F - 73.0 °F 100% 30.04 in 10.0 mi South 3.5 mph - N/A   Clear
8:52 AM 77.0 °F - 73.9 °F 90% 30.06 in 10.0 mi SE 5.8 mph - N/A   Clear
9:52 AM 78.1 °F - 73.0 °F 84% 30.09 in 10.0 mi SSE 5.8 mph - N/A   Clear
10:52 AM 79.0 °F - 73.9 °F 84% 30.09 in 10.0 mi SSE 10.4 mph - N/A   Mostly Cloudy
11:52 AM 79.0 °F - 73.9 °F 84% 30.11 in 10.0 mi SE 8.1 mph - 0.00 in   Mostly Cloudy
12:52 PM 80.1 °F 84.5 °F 73.9 °F 81% 30.12 in 10.0 mi SSE 9.2 mph - 0.00 in   Mostly Cloudy
1:52 PM 82.0 °F 88.6 °F 75.0 °F 79% 30.12 in 10.0 mi SE 12.7 mph - N/A   Mostly Cloudy
2:52 PM 82.9 °F 88.8 °F 73.0 °F 72% 30.12 in 10.0 mi SE 10.4 mph - N/A   Mostly Cloudy
3:52 PM 82.0 °F 87.4 °F 73.0 °F 74% 30.10 in 10.0 mi ESE 11.5 mph - N/A   Mostly Cloudy
4:52 PM 79.0 °F - 73.0 °F 82% 30.10 in 10.0 mi SE 12.7 mph - N/A   Mostly Cloudy
5:52 PM 81.0 °F 85.8 °F 73.0 °F 77% 30.10 in 10.0 mi SE 12.7 mph 20.7 mph N/A   Mostly Cloudy
6:52 PM 79.0 °F - 73.0 °F 82% 30.08 in 10.0 mi ESE 12.7 mph - N/A   Mostly Cloudy
7:52 PM 77.0 °F - 72.0 °F 84% 30.10 in 10.0 mi SSE 6.9 mph - N/A   Mostly Cloudy
8:52 PM 75.9 °F - 71.1 °F 85% 30.12 in 10.0 mi SSE 6.9 mph - N/A   Scattered Clouds
9:52 PM 75.9 °F - 71.1 °F 85% 30.14 in 10.0 mi ESE 5.8 mph - N/A   Scattered Clouds
10:52 PM 75.9 °F - 71.1 °F 85% 30.14 in 10.0 mi ESE 6.9 mph - N/A   Scattered Clouds
11:26 PM 75.2 °F - 71.6 °F 89% 30.15 in 10.0 mi SE 9.2 mph - N/A   Mostly Cloudy
11:52 PM 75.9 °F - 72.0 °F 87% 30.15 in 10.0 mi ESE 9.2 mph - N/A   Mostly Cloudy